Theta_e
315 316 317 318 315 315 316 319 319 320 322 327 331 331 332 333 333 330 334 344 346 346 347 346 344 346 344 337 333 330 328 326 319 323 328 329 328 330 329 330 330 328 325
314 315 314 313 314 314 312 313 317 319 322 322 323 326 329 331 333 332 332 342 346 345 346 346 345 347 341 337 333 329 327 327 323 319 324 324 325 327 328 328 332 335 328
310 311 311 313 313 312 315 315 313 319 322 322 322 322 324 326 328 332 333 335 345 347 346 347 346 345 340 333 331 329 328 330 326 323 323 323 324 325 325 326 326 323 325
310 309 308 310 312 313 313 314 316 317 314 316 319 320 322 326 328 330 334 334 342 347 347 346 343 344 342 335 332 329 327 325 324 323 322 321 321 323 323 321 319 323 321
311 309 310 312 313 312 313 313 313 313 316 317 318 318 321 323 325 326 331 333 338 343 344 345 343 341 333 335 334 329 328 324 322 322 320 319 318 319 318 321 321 324 325
309 309 311 311 311 312 311 312 312 312 311 312 313 315 319 323 315 311 317 325 334 340 340 342 343 330 328 321 323 325 329 324 322 321 320 318 318 319 319 319 318 320 317
310 310 310 309 309 309 310 310 310 309 309 310 312 314 317 320 309 308 310 324 328 338 339 340 337 338 327 325 316 316 320 319 323 325 322 321 320 321 321 318 318 319 315
307 308 308 308 308 308 308 309 307 306 308 309 311 313 315 319 308 306 308 322 326 336 340 338 335 328 327 325 325 324 322 322 324 329 326 325 324 324 324 323 320 321 319
306 306 307 307 307 307 306 306 308 308 308 308 310 311 314 316 307 305 309 324 327 337 339 336 333 331 311 312 327 325 323 318 308 307 312 312 308 308 319 324 321 319 316
305 306 307 306 306 305 306 306 307 307 307 309 309 312 310 311 307 304 308 322 328 335 337 334 318 328 307 310 326 325 323 316 319 318 317 313 314 312 311 324 322 317 314
306 307 306 306 306 307 307 307 308 308 308 308 309 310 311 312 314 304 305 320 329 335 334 331 329 308 305 305 317 325 323 320 315 320 320 320 322 320 322 324 324 321 317
306 305 305 306 307 308 308 309 309 309 309 307 307 308 310 313 309 309 305 304 320 334 332 332 325 306 303 303 315 305 305 315 322 321 321 319 320 320 321 323 324 323 323
303 304 306 307 308 308 308 307 308 309 309 308 308 309 311 315 318 309 303 301 308 331 331 318 303 301 298 303 302 301 306 325 323 320 320 322 322 326 326 325 322 322 321
304 305 305 305 306 308 309 309 306 306 308 309 309 311 313 319 320 318 321 316 310 311 307 309 308 308 310 308 309 309 324 323 321 321 321 319 324 323 323 324 321 319 317
304 304 304 306 306 306 306 306 308 309 309 310 311 313 315 321 322 316 319 325 321 314 314 318 319 319 318 317 317 318 320 321 320 323 320 317 320 322 321 322 321 321 318
302 303 305 306 306 308 307 306 296 299 300 300 303 313 324 312 303 305 305 303 301 304 319 318 318 318 318 318 317 317 318 317 320 323 319 318 317 318 317 319 319 318 318
304 305 306 307 314 310 308 307 305 301 297 300 297 302 307 303 301 300 300 302 302 310 319 319 319 319 318 317 316 316 316 318 320 320 320 319 319 316 315 317 317 317 316
303 301 306 314 315 312 311 311 314 311 312 308 300 304 297 298 300 301 298 307 318 319 322 320 319 319 318 318 317 317 318 319 319 319 320 320 321 319 318 317 317 318 317
304 308 311 321 318 318 319 319 317 314 312 311 309 302 298 298 298 300 305 322 322 321 321 320 320 322 321 321 322 321 323 319 321 320 320 320 320 319 317 318 317 303 306
306 302 303 322 319 321 318 317 317 317 317 317 314 310 313 316 320 320 321 321 320 320 321 320 321 320 319 320 321 320 320 318 320 320 319 320 320 317 314 317 317 316 316
302 308 303 323 322 322 321 319 318 318 318 319 319 312 298 317 313 312 314 316 317 318 319 318 318 318 318 319 322 321 319 319 320 317 316 317 317 315 318 318 318 317 314
301 309 318 323 324 322 320 319 318 319 319 313 310 303 296 309 307 305 304 303 304 306 308 309 309 309 310 312 319 319 319 317 315 317 314 315 315 316 316 315 316 317 315
301 309 318 323 320 311 319 319 318 316 312 310 307 304 303 302 300 299 297 297 298 299 300 302 303 303 303 304 304 310 315 317 318 318 316 316 317 318 318 316 315 312 314
302 314 321 321 320 319 318 314 310 303 305 302 301 299 298 296 295 295 295 294 294 295 295 295 296 297 298 299 301 301 301 305 315 318 318 319 317 313 317 313 312 312 311
307 320 321 318 316 314 312 309 306 303 300 299 297 295 295 294 292 292 292 292 291 291 290 291 292 292 292 293 295 297 290 290 304 300 313 311 307 308 306 306 305 304 305
320 319 317 314 310 308 306 303 300 299 296 295 294 293 291 291 290 289 289 289 288 288 288 288 288 289 289 289 288 287 288 290 295 292 305 305 303 302 301 300 300 300 300
Wind_Speed
8 7 7 7 7 6 4 5 5 6 6 7 7 7 8 11 9 9 11 14 12 13 11 11 14 10 10 5 4 3 4 4 4 1 2 2 3 5 3 3 3 5 4
9 9 9 9 7 7 6 6 5 7 8 7 9 10 9 11 13 11 12 14 13 14 13 14 14 9 11 7 5 6 6 5 5 5 2 1 2 1 2 3 3 3 4
8 8 8 8 9 9 8 8 7 6 6 7 9 11 13 13 14 15 14 14 15 14 15 15 15 13 10 6 5 6 5 3 4 5 4 2 1 1 2 1 2 3 3
8 9 9 9 9 9 8 8 8 7 7 11 12 12 14 14 14 16 16 14 15 16 15 15 14 12 13 9 8 7 6 5 4 5 3 3 2 1 2 3 1 1 2
0 2 4 6 7 8 8 9 8 8 8 8 12 15 15 13 12 15 15 13 14 16 14 14 10 12 15 12 7 6 7 4 4 4 4 3 3 2 4 3 3 3 2
5 6 4 4 6 7 8 9 8 8 8 9 11 15 16 12 13 14 15 12 17 15 13 12 11 13 14 15 13 11 10 7 6 5 4 4 4 4 4 4 3 3 2
6 5 5 6 6 7 7 8 10 10 8 9 9 13 18 16 14 17 19 14 14 17 13 11 9 8 12 10 10 12 9 10 9 7 6 5 5 6 6 4 4 3 3
7 6 6 6 7 8 10 12 8 6 8 9 12 13 16 15 14 15 18 16 15 21 14 12 12 12 13 13 11 9 8 7 6 5 7 6 6 7 8 6 6 4 3
7 7 7 7 10 12 15 16 16 15 14 15 14 17 18 16 13 14 14 14 17 18 11 12 13 13 15 17 13 11 8 4 5 4 8 8 7 8 8 5 5 5 2
6 7 8 9 14 17 17 16 14 15 17 15 17 14 15 15 14 14 14 10 16 13 10 12 19 18 18 17 12 12 10 7 7 5 4 4 4 5 11 6 6 6 3
8 10 13 14 17 17 15 14 15 16 16 15 14 14 15 13 13 18 19 14 14 12 9 9 9 17 18 16 13 9 9 11 8 7 5 4 4 4 4 4 5 4 4
13 15 16 16 13 13 16 14 16 15 16 15 14 12 12 12 17 19 23 21 18 12 13 11 11 19 17 14 10 11 16 12 7 6 5 4 4 4 4 4 4 4 3
17 17 15 13 16 18 16 17 14 15 13 12 11 12 11 11 13 21 17 16 18 10 10 13 18 17 17 8 14 12 12 7 7 5 5 4 4 4 5 5 3 5 4
17 14 16 18 17 16 14 14 13 12 11 11 12 11 10 10 9 7 9 8 12 11 13 12 12 12 10 10 7 5 5 6 6 5 4 3 4 4 2 3 2 3 2
17 19 19 17 19 19 20 15 13 13 13 11 11 10 10 11 9 14 13 9 9 10 12 9 9 8 7 5 4 5 4 4 5 4 5 4 4 4 3 2 2 2 3
19 17 16 16 17 19 18 14 9 12 14 20 19 14 12 12 19 21 19 17 22 20 10 10 9 8 8 7 6 4 3 6 5 7 5 4 4 4 3 2 2 2 3
18 18 16 19 9 1 11 12 11 5 16 23 12 16 18 18 21 26 24 25 18 15 11 9 9 8 7 6 6 4 4 4 5 5 5 5 5 4 4 3 3 2 2
18 26 17 14 5 6 9 11 9 9 6 7 13 12 22 21 25 25 20 18 10 7 10 9 8 8 7 6 5 4 4 4 4 5 5 5 6 6 4 4 3 3 3
15 14 14 3 4 8 8 8 10 14 13 8 13 13 15 21 21 16 13 9 10 9 8 8 8 8 7 6 5 4 6 5 4 4 4 5 5 5 4 4 4 4 2
12 21 18 5 7 9 10 11 10 13 14 14 13 12 12 15 12 9 8 9 7 6 7 8 6 7 7 6 5 4 5 4 4 4 4 4 5 4 4 4 3 3 3
10 15 9 10 11 12 12 12 12 13 15 14 12 9 12 13 11 10 10 9 8 8 8 8 6 6 5 4 6 5 5 4 4 5 4 4 4 4 4 4 3 3 2
8 8 8 5 11 13 13 13 13 14 14 14 14 13 15 12 11 10 10 9 8 8 7 8 8 7 6 5 5 6 6 5 4 5 4 4 4 3 4 4 4 3 3
6 7 7 3 14 14 13 13 14 14 14 13 12 12 12 11 10 10 10 8 8 8 8 8 8 7 6 6 6 5 5 4 4 4 4 4 2 2 4 4 4 2 2
9 1 2 12 13 14 13 14 14 15 14 13 13 12 11 10 10 11 9 9 9 9 9 9 8 8 6 6 5 5 4 3 3 4 5 3 4 4 5 6 5 5 4
6 7 13 14 14 14 15 14 13 13 13 12 12 11 10 11 11 11 10 9 10 11 12 9 8 10 11 10 8 7 5 6 7 7 7 9 9 10 7 6 6 5 5
14 15 14 13 13 13 13 13 13 12 12 12 12 11 11 12 11 11 10 11 11 11 11 10 12 15 14 11 10 8 8 10 9 9 8 8 9 8 7 9 10 7 7
Wind_Direction
203 201 197 203 202 208 220 259 269 263 250 252 257 264 263 274 269 250 260 253 229 233 232 220 219 211 219 193 201 195 152 138 135 296 108 130 115 140 165 148 167 188 191
190 188 195 202 201 203 224 245 260 279 270 253 261 261 265 273 274 263 258 256 243 235 231 226 218 205 206 184 188 192 183 155 136 150 148 125 116 129 158 133 197 200 162
197 199 208 203 197 202 204 209 231 253 270 279 273 278 278 270 275 281 265 261 245 237 231 223 219 202 199 179 182 186 167 154 165 135 148 134 135 142 97 74 112 82 77
198 198 202 204 201 196 203 208 213 215 239 273 277 275 273 274 269 268 271 256 249 239 229 223 219 199 201 179 176 172 166 165 158 122 126 132 139 196 129 152 210 131 129
98 269 245 218 208 206 203 209 218 220 227 241 270 274 268 263 267 274 274 263 259 238 232 217 208 203 186 171 162 179 155 162 127 124 129 133 153 153 192 187 182 123 93
257 252 235 249 243 224 222 215 209 220 227 239 257 270 274 267 266 268 268 279 280 242 228 210 197 179 169 160 151 156 161 157 148 139 159 165 183 180 167 181 136 139 175
230 229 246 257 263 265 248 228 227 222 215 228 239 262 270 265 253 263 270 276 277 254 219 198 185 177 152 141 136 132 138 153 147 152 161 174 169 188 159 160 161 153 186
223 230 230 236 249 257 261 261 246 225 228 234 245 248 260 266 256 262 268 270 273 259 211 183 173 161 156 150 140 129 130 126 142 152 161 177 183 180 176 169 167 133 81
225 231 232 240 253 256 256 256 259 254 252 249 248 250 251 257 254 266 269 272 274 252 193 173 156 159 161 147 143 143 136 120 57 79 130 145 165 183 161 132 151 151 129
239 246 248 252 259 260 258 256 252 250 254 258 251 237 246 259 256 258 261 266 266 243 183 170 164 153 160 158 148 155 151 160 150 123 101 88 126 149 157 161 153 162 137
254 255 255 257 256 249 247 250 249 247 246 242 242 246 254 250 258 248 247 247 252 228 177 155 150 162 156 153 148 159 163 148 157 142 146 142 143 151 158 163 165 149 163
262 261 258 257 254 254 252 248 245 244 241 237 240 250 251 245 249 251 242 229 240 200 170 157 157 166 157 147 132 147 146 143 148 154 149 153 164 177 185 174 173 178 198
274 269 259 255 255 252 244 242 241 239 227 228 238 246 246 244 242 235 220 210 211 171 155 149 142 144 129 123 126 135 143 141 150 145 159 168 175 169 136 127 106 117 119
281 271 271 271 260 258 248 228 222 229 222 228 234 233 238 251 214 176 170 131 112 103 108 119 133 125 117 115 104 135 140 150 153 151 140 125 119 114 105 137 144 162 134
281 279 270 256 248 239 239 230 227 219 215 216 224 227 230 213 183 153 150 135 119 125 140 124 116 115 120 119 123 141 148 158 140 127 130 135 134 130 140 140 115 151 185
280 281 277 275 270 249 217 202 170 208 213 215 215 225 214 156 135 148 127 137 141 154 117 125 127 133 139 151 152 146 158 142 143 124 130 136 133 138 147 141 131 189 199
279 285 285 286 286 84 138 168 185 234 238 225 198 217 147 140 132 126 135 142 141 121 125 134 135 142 148 148 139 144 145 145 129 129 142 146 147 145 151 171 158 168 225
292 290 286 286 161 138 144 161 168 147 133 137 178 163 121 126 126 132 135 116 111 102 126 135 136 138 140 137 141 146 140 129 127 137 145 150 157 153 164 181 184 183 208
295 293 304 314 59 103 117 99 98 93 100 130 117 89 111 119 118 129 121 109 124 120 127 132 135 140 143 148 143 133 132 137 141 138 136 142 149 153 175 175 188 203 193
301 286 273 145 119 99 97 84 106 114 114 111 113 119 130 124 122 114 96 95 104 116 126 128 126 129 138 140 133 121 112 126 118 116 131 146 149 151 168 192 177 172 197
302 304 18 95 103 109 109 104 105 106 108 111 112 104 85 96 91 82 78 73 77 83 92 91 88 89 96 118 128 120 121 123 117 112 124 147 144 147 176 174 175 165 168
302 314 352 81 102 99 104 104 105 104 99 94 92 75 79 84 85 84 78 69 65 66 68 84 77 69 62 56 83 101 98 107 121 120 118 117 118 146 139 138 135 125 132
298 314 338 69 96 100 101 105 108 92 92 88 86 83 81 81 80 80 77 70 67 66 59 68 72 65 53 51 39 51 95 94 105 126 133 126 91 155 136 138 131 114 112
248 164 264 106 108 105 98 93 92 88 89 86 86 85 87 88 85 80 78 75 73 68 61 60 60 64 61 55 50 50 49 32 57 107 117 102 77 85 83 79 81 82 90
241 172 109 103 100 100 98 92 88 88 91 93 94 91 91 89 83 79 78 75 70 67 61 57 57 55 52 52 50 57 46 66 74 74 87 90 83 76 80 82 79 68 66
93 92 97 96 93 93 90 92 91 92 95 92 88 83 83 82 81 78 74 74 74 69 66 57 55 57 56 47 42 42 51 61 67 67 80 85 87 85 84 83 78 77 74